timestamp,surface_pressure_avg,surface_temp_avg,battery_voltage,lat,long
2023-10-15 00:09:01+00:00,365.3979,12.89,11.53,47.84626,-54.09684
2023-10-15 00:19:00+00:00,364.4713,12.87,11.53,47.84626,-54.09684
2023-10-15 00:29:00+00:00,362.8079,12.82,11.53,47.84626,-54.09684
2023-10-15 00:39:00+00:00,359.8829,12.84,11.53,47.84626,-54.09684
2023-10-15 00:49:00+00:00,352.4779,12.85,11.53,47.84626,-54.09684
2023-10-15 00:59:00+00:00,349.74800000000016,12.81,11.53,47.84626,-54.09684
2023-10-15 01:09:00+00:00,349.4979,12.81,11.53,47.84626,-54.09684
2023-10-15 01:19:00+00:00,343.9596,12.84,11.53,47.84626,-54.09684
2023-10-15 01:29:00+00:00,341.2263,12.85,11.53,47.84626,-54.09684
2023-10-15 01:39:00+00:00,339.473,12.84,11.53,47.84626,-54.09684
2023-10-15 01:49:00+00:00,332.2263,12.85,11.53,47.84626,-54.09684
2023-10-15 01:59:00+00:00,323.3647,12.85,11.53,47.84626,-54.09684
2023-10-15 02:09:00+00:00,322.0197,12.86,11.53,47.84626,-54.09684
2023-10-15 02:19:01+00:00,321.258,12.86,11.53,47.84626,-54.09684
2023-10-15 02:29:01+00:00,305.978,12.85,11.53,47.84626,-54.09684
2023-10-15 02:39:01+00:00,295.4947,12.85,11.53,47.84626,-54.09684
2023-10-15 02:49:01+00:00,289.8164,12.84,11.53,47.84626,-54.09684
2023-10-15 02:59:01+00:00,282.8447,12.87,11.53,47.84626,-54.09684
2023-10-15 03:09:01+00:00,271.7131,12.86,11.53,47.84626,-54.09684
2023-10-15 03:19:01+00:00,268.4181,12.87,11.53,47.84626,-54.09684
2023-10-15 03:29:01+00:00,263.3598,12.87,11.53,47.84626,-54.09684
2023-10-15 03:39:01+00:00,252.9248,12.86,11.53,47.84626,-54.09684
2023-10-15 03:49:01+00:00,244.8164,12.87,11.53,47.84626,-54.09684
2023-10-15 03:59:01+00:00,241.6764,12.88,11.53,47.84626,-54.09684
2023-10-15 04:09:01+00:00,232.4731,12.88,11.53,47.84626,-54.09684
2023-10-15 04:19:00+00:00,222.4348,12.88,11.53,47.84626,-54.09684
2023-10-15 04:29:00+00:00,219.5281,12.88,11.53,47.84626,-54.09684
2023-10-15 04:39:00+00:00,213.9147,12.88,11.53,47.84626,-54.09684
2023-10-15 04:49:00+00:00,205.4715,12.88,11.53,47.84626,-54.09684
2023-10-15 04:59:00+00:00,202.4481,12.83,11.53,47.84626,-54.09684
2023-10-15 05:09:00+00:00,202.5998,12.8,11.53,47.84626,-54.09684
2023-10-15 05:19:00+00:00,199.4764,12.8,11.53,47.84626,-54.09684
2023-10-15 05:29:00+00:00,198.4915,12.8,11.53,47.84626,-54.09684
2023-10-15 05:39:00+00:00,200.0481,12.8,11.53,47.84626,-54.09684
2023-10-15 05:49:00+00:00,197.7681,12.81,11.53,47.84626,-54.09684
2023-10-15 05:59:00+00:00,198.3748,12.88,11.53,47.84626,-54.09684
2023-10-15 06:09:00+00:00,205.1515,12.9,11.53,47.84626,-54.09684
2023-10-15 06:19:01+00:00,207.0464,12.9,11.53,47.84626,-54.09684
2023-10-15 06:29:01+00:00,205.8514,12.9,11.53,47.84626,-54.09684
2023-10-15 06:39:01+00:00,211.8448,12.9,11.53,47.84626,-54.09684
2023-10-15 06:49:01+00:00,218.4231,12.9,11.53,47.84626,-54.09684
2023-10-15 06:59:01+00:00,219.0748,12.9,11.53,47.84626,-54.09684
2023-10-15 07:09:01+00:00,224.4031,12.9,11.53,47.84626,-54.09684
2023-10-15 07:19:00+00:00,236.0214,12.9,11.53,47.84626,-54.09684
2023-10-15 07:29:00+00:00,241.8147,12.9,11.53,47.84626,-54.09684
2023-10-15 07:39:00+00:00,243.7048,12.9,11.53,47.84626,-54.09684
2023-10-15 07:49:00+00:00,249.0014,12.9,11.53,47.84626,-54.09684
2023-10-15 07:59:00+00:00,257.8664,12.9,11.53,47.84626,-54.09684
2023-10-15 08:09:00+00:00,262.8631,12.9,11.53,47.84626,-54.09684
2023-10-15 08:19:00+00:00,265.8281,12.89,11.53,47.84626,-54.09684
2023-10-15 08:29:00+00:00,271.8931,12.8,11.53,47.84626,-54.09684
2023-10-15 08:39:00+00:00,277.9431,12.7,11.53,47.84626,-54.09684
2023-10-15 08:49:00+00:00,279.9131,12.6,11.53,47.84626,-54.09684
2023-10-15 08:59:00+00:00,284.723,12.72,11.53,47.84626,-54.09684
2023-10-15 09:09:00+00:00,294.128,12.77,11.53,47.84626,-54.09684
2023-10-15 09:19:00+00:00,301.0463,12.8,11.53,47.84626,-54.09684
2023-10-15 09:29:00+00:00,305.5797,12.86,11.53,47.84626,-54.09684
2023-10-15 09:39:00+00:00,313.5847,12.89,11.53,47.84626,-54.09684
2023-10-15 09:49:00+00:00,324.5396,12.9,11.53,47.84626,-54.09684
2023-10-15 09:59:00+00:00,329.5046,12.9,11.53,47.84626,-54.09684
2023-10-15 10:09:00+00:00,333.8129,12.9,11.53,47.84626,-54.09684
2023-10-15 10:19:00+00:00,342.3913,12.88,11.53,47.84626,-54.09684
2023-10-15 10:29:00+00:00,349.5829,12.89,11.53,47.84626,-54.09684
2023-10-15 10:39:00+00:00,353.1863,12.9,11.53,47.84626,-54.09684
2023-10-15 10:49:00+00:00,359.2596,12.9,11.53,47.84626,-54.09684
2023-10-15 10:59:00+00:00,367.92800000000005,12.9,11.53,47.84626,-54.09684
2023-10-15 11:09:00+00:00,368.9013,12.9,11.53,47.84626,-54.09684
2023-10-15 11:19:00+00:00,372.26800000000003,12.89,11.77,47.84626,-54.09684
2023-10-15 11:29:00+00:00,377.6496,12.87,11.77,47.84626,-54.09684
2023-10-15 11:39:00+00:00,379.6763,12.89,11.77,47.84626,-54.09684
2023-10-15 11:49:00+00:00,378.6046,12.89,11.77,47.84626,-54.09684
2023-10-15 11:59:00+00:00,377.7546,12.89,11.77,47.84626,-54.09684
2023-10-15 12:09:00+00:00,379.1779,12.89,11.77,47.84626,-54.09684
2023-10-15 12:19:00+00:00,378.4596,12.9,11.86,47.84626,-54.09684
2023-10-15 12:29:00+00:00,377.0945,12.9,11.86,47.84626,-54.09684
2023-10-15 12:39:00+00:00,377.3146,12.9,11.86,47.84626,-54.09684
2023-10-15 12:49:00+00:00,372.3279,12.9,11.86,47.84626,-54.09684
2023-10-15 12:59:00+00:00,369.5213,12.9,11.86,47.84626,-54.09684
2023-10-15 13:09:00+00:00,368.6963,12.89,11.86,47.84626,-54.09684
2023-10-15 13:19:00+00:00,367.1046,12.89,11.93,47.84626,-54.09684
2023-10-15 13:29:00+00:00,361.5496,12.9,11.93,47.84626,-54.09684
2023-10-15 13:39:00+00:00,355.8979,12.8,11.93,47.84626,-54.09684
2023-10-15 13:49:00+00:00,355.733,12.76,11.93,47.84626,-54.09684
2023-10-15 13:59:00+00:00,350.7313,12.8,11.93,47.84626,-54.09684
2023-10-15 14:09:00+00:00,341.9846,12.86,11.93,47.84626,-54.09684
2023-10-15 14:19:00+00:00,337.3079,12.89,11.77,47.84626,-54.09684
2023-10-15 14:29:00+00:00,329.4229,12.9,11.77,47.84626,-54.09684
2023-10-15 14:39:00+00:00,319.0747,12.9,11.77,47.84626,-54.09684
2023-10-15 14:49:00+00:00,303.0063,12.9,11.77,47.84626,-54.09684
2023-10-15 14:59:00+00:00,294.8613,12.9,11.77,47.84626,-54.09684
2023-10-15 15:09:00+00:00,291.1814,12.9,11.77,47.84626,-54.09684
2023-10-15 15:19:00+00:00,279.9897,12.9,11.86,47.84626,-54.09684
2023-10-15 15:29:00+00:00,269.4997,12.9,11.86,47.84626,-54.09684
2023-10-15 15:39:00+00:00,263.7598,12.9,11.86,47.84626,-54.09684
2023-10-15 15:49:00+00:00,259.5348,12.9,11.86,47.84626,-54.09684
2023-10-15 15:59:00+00:00,248.0648,12.9,11.86,47.84626,-54.09684
2023-10-15 16:09:00+00:00,237.1531,12.9,11.86,47.84626,-54.09684
2023-10-15 16:19:00+00:00,230.3998,12.9,11.77,47.84626,-54.09684
2023-10-15 16:29:00+00:00,226.4614,12.95,11.77,47.84626,-54.09684
2023-10-15 16:39:00+00:00,221.5581,12.97,11.77,47.84626,-54.09684
2023-10-15 16:49:00+00:00,215.9031,12.97,11.77,47.84626,-54.09684
2023-10-15 16:59:00+00:00,212.3414,12.96,11.77,47.84626,-54.09684
2023-10-15 17:09:00+00:00,210.1364,12.93,11.77,47.84626,-54.09684
2023-10-15 17:19:00+00:00,208.2764,12.9,11.7,47.84626,-54.09684
2023-10-15 17:29:00+00:00,203.9581,12.9,11.7,47.84626,-54.09684
2023-10-15 17:39:00+00:00,199.2065,12.92,11.7,47.84626,-54.09684
2023-10-15 17:49:00+00:00,198.3015,12.94,11.7,47.84626,-54.09684
2023-10-15 17:59:00+00:00,199.8748,12.97,11.7,47.84626,-54.09684
2023-10-15 18:09:00+00:00,196.8198,12.98,11.7,47.84626,-54.09684
2023-10-15 18:19:00+00:00,197.4331,12.98,11.7,47.84626,-54.09684
2023-10-15 18:29:00+00:00,202.0765,12.99,11.7,47.84626,-54.09684
2023-10-15 18:39:00+00:00,203.9548,12.95,11.7,47.84626,-54.09684
2023-10-15 18:49:00+00:00,207.8648,12.9,11.7,47.84626,-54.09684
2023-10-15 18:59:00+00:00,214.8548,12.9,11.7,47.84626,-54.09684
2023-10-15 19:09:00+00:00,222.3264,12.9,11.7,47.84626,-54.09684
2023-10-15 19:19:00+00:00,226.9231,12.9,11.7,47.84626,-54.09684
2023-10-15 19:29:00+00:00,229.5448,12.9,11.7,47.84626,-54.09684
2023-10-15 19:39:00+00:00,230.7448,12.9,11.7,47.84626,-54.09684
2023-10-15 19:49:00+00:00,232.3631,12.9,11.7,47.84626,-54.09684
2023-10-15 19:59:00+00:00,236.5114,12.9,11.7,47.84626,-54.09684
2023-10-15 20:09:00+00:00,240.8131,12.88,11.7,47.84626,-54.09684
2023-10-15 20:19:00+00:00,244.4964,12.89,11.7,47.84626,-54.09684
2023-10-15 20:29:00+00:00,252.8848,12.9,11.7,47.84626,-54.09684
2023-10-15 20:39:00+00:00,258.9948,12.9,11.7,47.84626,-54.09684
2023-10-15 20:49:00+00:00,257.4597,12.9,11.7,47.84626,-54.09684
2023-10-15 20:59:00+00:00,256.7348,12.89,11.7,47.84626,-54.09684
2023-10-15 21:09:00+00:00,268.0814,12.88,11.7,47.84626,-54.09684
2023-10-15 21:19:00+00:00,276.2214,12.89,11.61,47.84626,-54.09684
2023-10-15 21:29:00+00:00,277.3948,12.88,11.61,47.84626,-54.09684
2023-10-15 21:39:00+00:00,283.5681,12.89,11.61,47.84626,-54.09684
2023-10-15 21:49:00+00:00,299.548,12.89,11.61,47.84626,-54.09684
2023-10-15 21:59:00+00:00,307.4979,12.89,11.61,47.84626,-54.09684
2023-10-15 22:09:00+00:00,309.0413,12.88,11.61,47.84626,-54.09684
2023-10-15 22:19:00+00:00,316.3796,12.85,11.61,47.84626,-54.09684
2023-10-15 22:29:00+00:00,326.7962,12.82,11.61,47.84626,-54.09684
2023-10-15 22:39:00+00:00,327.6246,12.86,11.61,47.84626,-54.09684
2023-10-15 22:49:00+00:00,328.0197,12.88,11.61,47.84626,-54.09684
2023-10-15 22:59:00+00:00,336.653,12.88,11.61,47.84626,-54.09684
2023-10-15 23:09:00+00:00,351.0779,12.88,11.61,47.84626,-54.09684
2023-10-15 23:19:00+00:00,360.9496,12.89,11.61,47.84626,-54.09684
2023-10-15 23:29:00+00:00,363.6381,12.88,11.61,47.84626,-54.09684
2023-10-15 23:39:00+00:00,367.8179,12.86,11.61,47.84626,-54.09684
2023-10-15 23:49:00+00:00,372.4379,12.81,11.61,47.84626,-54.09684
2023-10-15 23:59:00+00:00,371.333,12.83,11.61,47.84626,-54.09684
